Find Starlink 32363

NORAD ID: 61678 Int'l Des: 2024-193 Owner: SPXS Country: US Constellation: starlink operational
LEOCIRCULAR

当前视图

正在加载3D地球...

About Starlink 32363

Starlink 32363 (NORAD 61678) is a starlink constellation satellite (v2 mini) launched Oct 26, 2024 by SPXS of US. It operates in LEO, CIRCULAR orbit with a mass of 730.00 kg.

关于 Starlink 32363

正在加载描述...

即将过境

Passes for default location (London). Set your location on the main map for personalized predictions.

高度历史

Loading altitude history...

两行轨道根数

1 61678U 24193T 26168.75297781 .00000408 00000-0 23226-4 0 9997
2 61678 53.1621 344.3214 0001290 83.1629 276.9520 15.34389886 91871
Epoch: Jun 17, 2026 • Age: 12 hours

当前状态

高度 482.0 km
速度 7.62 km/s
星下点 -52.82°S, 117.69°W
发射日期 Oct 26, 2024
运行时间 1.6 years
类型 internet

技术详情

分类 Payload
质量 730.00 kg
干质量 700.00 kg
总质量 730.00 kg
长度 0.30 m
直径 4.10 m
跨度 29.00 m
形状 Box + pan
制造商 SPXS
平台类型 Starlink V2M
阶段状态 In Orbit
所有者/国家 SPXS/US

Most Searched